User: anonymous   Login
Location: Estes Park
(40.3770°N, 105.5210°W)
Time: 04:55:13
(UTC-07:00)
Language:

Envisat - Orbit

View from above orbital plane
View from above orbital plane
View from above satellite
View from above satellite

Ground track
Ground track

The orbit data is extracted from the following two-line orbital elements,

1 27386U 02009A   17351.11944828 -.00000011  00000-0  10121-4 0  9993
2 27386  98.2093  28.5360 0001480  83.2131 276.9238 14.37910890827369
Epoch (UTC): 17 December 2017 02:52:00
Eccentricity: 0.0001480
inclination: 98.2093°
perigee height: 764 km
apogee height: 766 km
right ascension of ascending node: 28.5360°
argument of perigee: 83.2131°
revolutions per day: 14.37910890
mean anomaly at epoch: 276.9238°
orbit number at epoch: 82736

The dashed part of the orbit path shows where the satellite is in the earth's shadow,  

DLR